Location: Holyhead Bay
(53.3667°N, 4.6667°W)
Time: 09:11:23
(UTC+00:00)

IRIDIUM 33 DEB - Pass Details

Date: 26 September 2021
Orbit: 581 x 601 km, 86.4° (Epoch: 24 October)

Event Time Altitude Azimuth Distance (km) Brightness Sun altitude
Rises 05:27:44 0° 349° (N) 2,858 ? -7.4°
Reaches altitude 10° 05:30:04 10° 341° (NNW) 1,947 ? -7.0°
Maximum altitude 05:33:58 36° 275° (W) 957 ? -6.4°
Drops below altitude 10° 05:37:50 10° 209° (SSW) 1,918 ? -5.9°
Sets 05:40:07 0° 201° (SSW) 2,810 ? -5.5°
